Change the Weather History Date:

Friday, May 23, 2014

  Actual Average Record
Temperature  
Mean Temperature 65 °F -  
Max Temperature 72 °F 70 °F 92 °F (1980)
Min Temperature 59 °F 50 °F 42 °F (2002)
Growing Degree Days 15 (Base 50)    
Moisture  
Dew Point 57 °F    
Average Humidity 81    
Maximum Humidity 90    
Minimum Humidity 59    
Precipitation  
Precipitation 0.25 in - - ()
Sea Level Pressure  
Sea Level Pressure 29.88 in    
Wind  
Wind Speed 3 mph (NE)    
Max Wind Speed 12 mph    
Max Gust Speed -    
Visibility 6 miles    
Events Rain , Thunderstorm    
Averages and records for this station are not official NWS values.
T = Trace of Precipitation, MM = Missing Value Source: NWS Daily Summary

Daily Weather History Graph

Daily Weather History Graph

Search for Another Location

Airport or City:

Trip Planner

Search our weather history database for the weather conditions in past years. The results will help you decide how hot, cold, wet, or windy it might be!

Date:

Astronomy

May. 23, 2014 Rise Set
Actual Time 5:32 AM EDT 8:14 PM EDT
Civil Twilight 5:00 AM EDT 8:46 PM EDT
Nautical Twilight 4:20 AM EDT 9:26 PM EDT
Astronomical Twilight 3:34 AM EDT 10:12 PM EDT
Moon 2:27 AM EDT (5/23) 3:02 PM EDT (5/23)
Length of Visible Light 15h 46m
Length of Day
14h 42m
Waning Crescent, 27% of the Moon is Illuminated
May 23
Waning Crescent
May 28
New
Jun 5
First Quarter
Jun 13
Full
Jun 19
Last Quarter

Hourly Weather History & Observations

Time (EDT) Temp. Dew Point Humidity Pressure Visibility Wind Dir Wind Speed Gust Speed Precip Events Conditions
12:51 AM 62.1 °F 57.9 °F 86% 29.84 in 3.0 mi Calm Calm - N/A   Overcast
1:51 AM 63.0 °F 59.0 °F 87% 29.84 in 2.0 mi Calm Calm - N/A   Overcast
2:51 AM 61.0 °F 57.9 °F 90% 29.84 in 2.0 mi ENE 4.6 mph - N/A   Overcast
2:53 AM 60.8 °F 57.2 °F 88% 29.84 in 3.0 mi ENE 5.8 mph - N/A   Overcast
3:11 AM 60.8 °F 57.2 °F 88% 29.84 in 4.0 mi East 5.8 mph - N/A   Overcast
3:51 AM 61.0 °F 57.0 °F 87% 29.84 in 5.0 mi ENE 3.5 mph - N/A   Overcast
4:34 AM 60.8 °F 57.2 °F 88% 29.84 in 4.0 mi ENE 3.5 mph - N/A   Overcast
4:51 AM 60.8 °F 57.2 °F 88% 29.84 in 4.0 mi Variable 3.5 mph - N/A   Overcast
5:51 AM 61.0 °F 57.0 °F 87% 29.84 in 4.0 mi Calm Calm - N/A   Overcast
6:29 AM 60.8 °F 57.2 °F 88% 29.85 in 4.0 mi NE 4.6 mph - 0.00 in   Light Drizzle
6:51 AM 61.0 °F 57.0 °F 87% 29.86 in 4.0 mi North 3.5 mph - 0.00 in   Light Drizzle
7:14 AM 62.6 °F 57.2 °F 82% 29.86 in 4.0 mi NNW 4.6 mph - 0.00 in   Light Drizzle
7:26 AM 62.6 °F 57.2 °F 82% 29.86 in 4.0 mi Calm Calm - 0.00 in   Light Drizzle
7:51 AM 62.6 °F 57.2 °F 82% 29.87 in 4.0 mi NNE 3.5 mph - N/A   Haze
8:22 AM 62.6 °F 57.2 °F 82% 29.88 in 4.0 mi Variable 3.5 mph - N/A   Haze
8:51 AM 63.0 °F 57.9 °F 84% 29.88 in 5.0 mi Calm Calm - N/A   Haze
9:51 AM 66.0 °F 57.9 °F 75% 29.89 in 5.0 mi Calm Calm - N/A   Haze
10:22 AM 66.2 °F 57.2 °F 73% 29.89 in 8.0 mi Calm Calm - N/A   Overcast
10:32 AM 66.2 °F 57.2 °F 73% 29.89 in 8.0 mi Calm Calm - N/A   Overcast
10:44 AM 68.0 °F 57.2 °F 68% 29.89 in 8.0 mi Calm Calm - N/A   Overcast
10:51 AM 68.0 °F 57.9 °F 70% 29.88 in 8.0 mi Calm Calm - N/A   Overcast
11:39 AM 68.0 °F 57.2 °F 68% 29.88 in 8.0 mi Variable 3.5 mph - N/A   Overcast
11:51 AM 69.1 °F 57.0 °F 65% 29.88 in 8.0 mi NE 3.5 mph - N/A   Overcast
12:51 PM 71.1 °F 57.0 °F 61% 29.87 in 10.0 mi Variable 4.6 mph - N/A   Overcast
1:51 PM 71.1 °F 55.9 °F 59% 29.86 in 10.0 mi ENE 4.6 mph - N/A   Overcast
2:51 PM 70.0 °F 57.0 °F 63% 29.86 in 10.0 mi SSE 6.9 mph - 0.00 in   Light Drizzle
3:29 PM 64.4 °F 60.8 °F 88% 29.86 in 4.0 mi SSW 9.2 mph - 0.19 in Rain , Thunderstorm Heavy Thunderstorms and Rain
3:51 PM 64.0 °F 59.0 °F 84% 29.86 in 3.0 mi East 5.8 mph - N/A Rain , Thunderstorm Thunderstorms and Rain
4:12 PM 64.4 °F 59.0 °F 83% 29.86 in 4.0 mi Calm Calm - 0.03 in Rain Light Rain
4:51 PM 64.9 °F 59.0 °F 81% 29.85 in 5.0 mi ESE 5.8 mph - 0.09 in Rain Light Rain
5:51 PM 68.0 °F 61.0 °F 78% 29.85 in 8.0 mi NE 3.5 mph - 0.00 in   Overcast
6:51 PM 66.9 °F 59.0 °F 76% 29.86 in 10.0 mi Calm Calm - N/A   Mostly Cloudy
7:28 PM 66.2 °F 59.0 °F 78% 29.86 in 10.0 mi East 4.6 mph - N/A Thunderstorm Thunderstorm
7:51 PM 64.9 °F 59.0 °F 81% 29.89 in 6.0 mi SSE 4.6 mph - 0.00 in Rain , Thunderstorm Light Thunderstorms and Rain
8:06 PM 64.4 °F 55.4 °F 73% 29.89 in 6.0 mi SSW 8.1 mph - 0.00 in Rain , Thunderstorm Light Thunderstorms and Rain
8:31 PM 64.4 °F 57.2 °F 77% 29.88 in 6.0 mi SSE 5.8 mph - 0.00 in Rain Light Rain
8:51 PM 62.1 °F 57.0 °F 84% 29.90 in 6.0 mi SSW 10.4 mph - 0.00 in   Light Drizzle
9:20 PM 60.8 °F 55.4 °F 82% 29.93 in 3.0 mi NW 10.4 mph - 0.15 in Rain Rain
9:33 PM 60.8 °F 55.4 °F 82% 29.93 in 7.0 mi NW 9.2 mph - 0.18 in Rain Heavy Rain
9:51 PM 59.0 °F 55.4 °F 88% 29.93 in 5.0 mi NW 11.5 mph - N/A Rain Heavy Rain
10:22 PM 59.0 °F 55.4 °F 88% 29.93 in 8.0 mi NW 4.6 mph - 0.08 in Rain , Thunderstorm Light Thunderstorms and Rain
10:48 PM 59.0 °F 55.4 °F 88% 29.93 in 3.0 mi Calm Calm - 0.12 in Rain Light Rain
10:51 PM 59.0 °F 55.4 °F 88% 29.93 in 3.0 mi Calm Calm - N/A Rain Light Rain
11:00 PM 59.0 °F 55.4 °F 88% 29.93 in 2.0 mi Calm Calm - 0.06 in Rain Light Rain
11:10 PM 59.0 °F 55.4 °F 88% 29.93 in 5.0 mi Calm Calm - 0.09 in Rain Light Rain
11:27 PM 59.0 °F 55.4 °F 88% 29.93 in 4.0 mi WNW 3.5 mph - 0.12 in Rain , Thunderstorm Light Thunderstorms and Rain
11:49 PM 59.0 °F 55.4 °F 88% 29.93 in 7.0 mi NW 3.5 mph - 0.16 in Rain Light Rain
11:51 PM 59.0 °F 55.9 °F 90% 29.93 in 7.0 mi NNW 3.5 mph - 0.16 in Rain Light Rain